THY2TK LATI-LTFM

Flight info

Callsign THY2TK
Flight time 1h 10m
Altitude 35000
Route ODRAS DCT MAVAR DCT TETOV DCT VELBA DCT AYTEK
Aircraft B738/M-SDE2E3FGHIRWXY/LB1

Departure

Time 2026-04-30 19:16
Airport Tirana International Airport Mother Teresa (LATI)

Arrival

Time 2026-04-30 20:26
Airport İstanbul Airport (LTFM)
Time Latitude Longitude Altitude Speed Heading
2026-04-30 18:12 41.41951 19.71524 122 ft 0 kts 265°
2026-04-30 19:07 41.41973 19.71575 117 ft 4 kts 192°
2026-04-30 19:07 41.41985 19.71577 117 ft 0 kts 175°
2026-04-30 19:09 41.41984 19.71577 121 ft 1 kts 175°
2026-04-30 19:10 41.41914 19.71585 122 ft 11 kts 175°
2026-04-30 19:10 41.41693 19.71614 123 ft 20 kts 174°
2026-04-30 19:11 41.41538 19.71636 122 ft 24 kts 174°
2026-04-30 19:11 41.41159 19.71687 124 ft 29 kts 174°
2026-04-30 19:11 41.40967 19.71713 124 ft 27 kts 174°
2026-04-30 19:12 41.40787 19.71738 128 ft 25 kts 174°
2026-04-30 19:12 41.40647 19.71764 128 ft 13 kts 143°
2026-04-30 19:12 41.40644 19.71878 130 ft 13 kts 77°
2026-04-30 19:13 41.40682 19.72100 128 ft 12 kts 84°
2026-04-30 19:13 41.40539 19.72180 128 ft 13 kts 173°
2026-04-30 19:13 41.40433 19.72195 130 ft 17 kts 174°
2026-04-30 19:14 41.40391 19.72201 131 ft 2 kts 173°
2026-04-30 19:14 41.40365 19.72201 129 ft 6 kts 176°
2026-04-30 19:14 41.40310 19.72197 132 ft 10 kts 196°
2026-04-30 19:14 41.40274 19.72211 132 ft 5 kts 99°
2026-04-30 19:15 41.40301 19.72217 132 ft 5 kts 330°
2026-04-30 19:15 41.40527 19.72182 129 ft 65 kts 354°
2026-04-30 19:15 41.41209 19.72092 127 ft 130 kts 354°
2026-04-30 19:16 41.42287 19.71947 192 ft 176 kts 354°
2026-04-30 19:16 41.43443 19.71767 1126 ft 160 kts 354°
2026-04-30 19:16 41.45737 19.71430 2339 ft 190 kts 359°
2026-04-30 19:17 41.47150 19.71259 2598 ft 217 kts 358°
2026-04-30 19:17 41.50469 19.70847 3427 ft 255 kts 358°
2026-04-30 19:17 41.52234 19.70617 4364 ft 254 kts 357°
2026-04-30 19:18 41.54583 19.70309 5468 ft 259 kts 357°
2026-04-30 19:18 41.57597 19.69914 6844 ft 265 kts 356°
2026-04-30 19:18 41.59413 19.69674 7815 ft 262 kts 355°
2026-04-30 19:19 41.61210 19.69163 8527 ft 270 kts 336°
2026-04-30 19:19 41.62701 19.67649 9412 ft 272 kts 312°
2026-04-30 19:19 41.63825 19.62764 10587 ft 304 kts 266°
2026-04-30 19:20 41.63161 19.59951 10767 ft 333 kts 245°
2026-04-30 19:20 41.61732 19.57392 11092 ft 355 kts 226°
2026-04-30 19:20 41.57148 19.54930 12425 ft 372 kts 177°
2026-04-30 19:21 41.54688 19.55805 13119 ft 376 kts 151°
2026-04-30 19:21 41.50935 19.60652 14410 ft 381 kts 130°
2026-04-30 19:22 41.47091 19.65669 15514 ft 393 kts 139°
2026-04-30 19:22 41.43247 19.75014 17157 ft 402 kts 86°
2026-04-30 19:23 41.45915 19.85531 18740 ft 409 kts 62°
2026-04-30 19:24 41.48194 19.92563 19689 ft 418 kts 63°
2026-04-30 19:24 41.49324 19.96153 20200 ft 421 kts 63°
2026-04-30 19:24 41.51611 20.03436 21103 ft 431 kts 64°
2026-04-30 19:25 41.54719 20.13385 22321 ft 441 kts 63°
2026-04-30 19:26 41.57132 20.21003 23240 ft 449 kts 64°
2026-04-30 19:26 41.59550 20.28798 24001 ft 458 kts 64°
2026-04-30 19:26 41.60769 20.32752 24388 ft 461 kts 64°
2026-04-30 19:27 41.63229 20.40736 25097 ft 468 kts 64°
2026-04-30 19:27 41.65725 20.48833 25789 ft 474 kts 63°
2026-04-30 19:28 41.67203 20.52766 26138 ft 473 kts 54°
2026-04-30 19:28 41.71253 20.59595 26809 ft 469 kts 42°
2026-04-30 19:29 41.75709 20.66055 27422 ft 475 kts 42°
2026-04-30 19:29 41.77942 20.69329 27765 ft 478 kts 42°
2026-04-30 19:30 41.84642 20.79328 28646 ft 486 kts 43°
2026-04-30 19:30 41.89161 20.86128 29242 ft 490 kts 43°
2026-04-30 19:31 41.93729 20.93003 29650 ft 496 kts 44°
2026-04-30 19:31 41.95784 20.96782 29897 ft 507 kts 57°
2026-04-30 19:31 41.97885 21.05874 30498 ft 517 kts 85°
2026-04-30 19:32 41.97940 21.10709 30853 ft 516 kts 90°
2026-04-30 19:32 41.97895 21.15523 31168 ft 515 kts 90°
2026-04-30 19:32 41.97834 21.20361 31426 ft 516 kts 90°
2026-04-30 19:32 41.97783 21.25176 31680 ft 516 kts 90°
2026-04-30 19:33 41.97750 21.29936 31992 ft 515 kts 90°
2026-04-30 19:33 41.97733 21.34744 32328 ft 514 kts 90°
2026-04-30 19:33 41.97727 21.39542 32636 ft 513 kts 89°
2026-04-30 19:33 41.97725 21.44336 32876 ft 514 kts 89°
2026-04-30 19:34 41.97723 21.49135 33146 ft 513 kts 89°
2026-04-30 19:34 41.97719 21.53923 33472 ft 512 kts 89°
2026-04-30 19:34 41.97702 21.63474 34053 ft 510 kts 90°
2026-04-30 19:35 41.97690 21.68235 34306 ft 510 kts 90°
2026-04-30 19:35 41.97674 21.73000 34546 ft 509 kts 90°
2026-04-30 19:35 41.97657 21.77747 34810 ft 508 kts 90°
2026-04-30 19:35 41.97637 21.82485 35054 ft 506 kts 90°
2026-04-30 19:36 41.97615 21.87219 35250 ft 506 kts 90°
2026-04-30 19:36 41.97540 22.01477 35247 ft 508 kts 90°
2026-04-30 19:37 41.97480 22.10929 35239 ft 505 kts 90°
2026-04-30 19:37 41.97413 22.20280 35240 ft 502 kts 90°
2026-04-30 19:38 41.97339 22.29656 35244 ft 501 kts 90°
2026-04-30 19:38 41.97257 22.39022 35236 ft 502 kts 91°
2026-04-30 19:39 41.97167 22.48410 35242 ft 503 kts 91°
2026-04-30 19:39 41.97068 22.57827 35246 ft 505 kts 91°
2026-04-30 19:40 41.96963 22.67283 35233 ft 507 kts 91°
2026-04-30 19:40 41.96849 22.76776 35227 ft 509 kts 91°
2026-04-30 19:41 41.96727 22.86300 35233 ft 511 kts 91°
2026-04-30 19:41 41.96523 22.95859 35216 ft 512 kts 93°
2026-04-30 19:42 41.96198 23.05426 35214 ft 513 kts 93°
2026-04-30 19:42 41.95860 23.15007 35215 ft 514 kts 93°
2026-04-30 19:43 41.95533 23.24529 35202 ft 514 kts 93°
2026-04-30 19:44 41.95040 23.38911 35194 ft 514 kts 94°
2026-04-30 19:44 41.94704 23.48480 35205 ft 512 kts 94°
2026-04-30 19:45 41.94360 23.58019 35207 ft 511 kts 94°
2026-04-30 19:45 41.94007 23.67554 35207 ft 511 kts 94°
2026-04-30 19:46 41.93646 23.77085 35223 ft 511 kts 94°
2026-04-30 19:46 41.93277 23.86615 35221 ft 511 kts 94°
2026-04-30 19:47 41.92901 23.96142 35231 ft 511 kts 94°
2026-04-30 19:47 41.92516 24.05677 35223 ft 512 kts 95°
2026-04-30 19:48 41.92122 24.15234 35226 ft 513 kts 95°
2026-04-30 19:48 41.91723 24.24742 35244 ft 514 kts 95°
2026-04-30 19:49 41.91312 24.34340 35235 ft 516 kts 95°
2026-04-30 19:49 41.90678 24.48786 35255 ft 518 kts 95°
2026-04-30 19:50 41.90243 24.58456 35248 ft 520 kts 95°
2026-04-30 19:50 41.89800 24.68145 35255 ft 520 kts 95°
2026-04-30 19:51 41.89348 24.77843 35266 ft 521 kts 95°
2026-04-30 19:51 41.88888 24.87548 35257 ft 521 kts 95°
2026-04-30 19:52 41.88419 24.97254 35246 ft 521 kts 95°
2026-04-30 19:52 41.87942 25.06941 35241 ft 520 kts 95°
2026-04-30 19:53 41.87458 25.16610 35250 ft 519 kts 95°
2026-04-30 19:53 41.86967 25.26261 35237 ft 518 kts 96°
2026-04-30 19:54 41.86473 25.35831 35229 ft 517 kts 96°
2026-04-30 19:54 41.85967 25.45451 35229 ft 516 kts 96°
2026-04-30 19:55 41.85454 25.55057 35236 ft 516 kts 96°
2026-04-30 19:55 41.84934 25.64654 35227 ft 516 kts 96°
2026-04-30 19:56 41.84405 25.74244 35228 ft 516 kts 96°
2026-04-30 19:56 41.83879 25.83687 35190 ft 494 kts 96°
2026-04-30 19:57 41.83625 25.88211 35199 ft 480 kts 96°
2026-04-30 19:57 41.83375 25.92618 35194 ft 467 kts 96°
2026-04-30 19:57 41.83131 25.96891 35187 ft 454 kts 96°
2026-04-30 19:57 41.82888 26.01093 35211 ft 453 kts 96°
2026-04-30 19:58 41.82387 26.09619 35224 ft 464 kts 96°
2026-04-30 19:58 41.81875 26.18281 35223 ft 474 kts 96°
2026-04-30 19:59 41.81343 26.27222 34980 ft 481 kts 96°
2026-04-30 19:59 41.80753 26.36174 32782 ft 495 kts 103°
2026-04-30 20:00 41.79802 26.40629 31310 ft 501 kts 116°
2026-04-30 20:00 41.78504 26.44975 30400 ft 500 kts 117°
2026-04-30 20:00 41.77233 26.49278 29694 ft 493 kts 116°
2026-04-30 20:00 41.76037 26.53534 29038 ft 483 kts 115°
2026-04-30 20:01 41.73221 26.61400 27620 ft 456 kts 130°
2026-04-30 20:01 41.71415 26.64853 26925 ft 449 kts 132°
2026-04-30 20:01 41.69623 26.68241 26221 ft 443 kts 131°
2026-04-30 20:02 41.66211 26.75004 24890 ft 433 kts 129°
2026-04-30 20:02 41.64373 26.78089 24255 ft 414 kts 147°
2026-04-30 20:03 41.59589 26.81335 23447 ft 371 kts 176°
2026-04-30 20:03 41.57027 26.81900 23082 ft 376 kts 179°
2026-04-30 20:03 41.54418 26.82400 22687 ft 381 kts 179°
2026-04-30 20:03 41.51800 26.82932 22320 ft 381 kts 178°
2026-04-30 20:04 41.49202 26.83791 21917 ft 394 kts 162°
2026-04-30 20:04 41.46886 26.85800 21597 ft 403 kts 144°
2026-04-30 20:04 41.44965 26.88491 21424 ft 401 kts 135°
2026-04-30 20:05 41.41965 26.94850 20703 ft 413 kts 117°
2026-04-30 20:05 41.40887 26.98328 20344 ft 411 kts 116°
2026-04-30 20:05 41.38859 27.05195 19626 ft 405 kts 117°
2026-04-30 20:06 41.37714 27.08585 19386 ft 397 kts 120°
2026-04-30 20:06 41.36503 27.11868 19144 ft 393 kts 121°
2026-04-30 20:06 41.35271 27.15114 18904 ft 394 kts 121°
2026-04-30 20:06 41.34033 27.18366 18672 ft 394 kts 121°
2026-04-30 20:07 41.32802 27.21621 18433 ft 393 kts 121°
2026-04-30 20:07 41.31583 27.24869 18161 ft 391 kts 121°
2026-04-30 20:07 41.29182 27.31316 17613 ft 387 kts 121°
2026-04-30 20:08 41.27996 27.34510 17363 ft 384 kts 121°
2026-04-30 20:08 41.26817 27.37686 17094 ft 382 kts 121°
2026-04-30 20:08 41.25642 27.40847 16825 ft 381 kts 121°
2026-04-30 20:08 41.24470 27.43997 16566 ft 380 kts 121°
2026-04-30 20:09 41.23303 27.47134 16304 ft 378 kts 121°
2026-04-30 20:09 41.22138 27.50258 16050 ft 377 kts 121°
2026-04-30 20:09 41.19904 27.56240 15564 ft 374 kts 121°
2026-04-30 20:10 41.17601 27.62396 15069 ft 371 kts 121°
2026-04-30 20:10 41.16454 27.65455 14823 ft 369 kts 121°
2026-04-30 20:10 41.15314 27.68496 14579 ft 367 kts 121°
2026-04-30 20:11 41.13045 27.74536 14091 ft 363 kts 121°
2026-04-30 20:11 41.11951 27.77442 13862 ft 361 kts 121°
2026-04-30 20:11 41.10836 27.80402 13597 ft 358 kts 121°
2026-04-30 20:12 41.08619 27.86278 13060 ft 354 kts 121°
2026-04-30 20:12 41.07520 27.89187 12800 ft 352 kts 121°
2026-04-30 20:12 41.06428 27.92076 12539 ft 351 kts 121°
2026-04-30 20:13 41.05353 27.94915 12283 ft 349 kts 121°
2026-04-30 20:13 41.04266 27.97783 12022 ft 347 kts 121°
2026-04-30 20:13 41.03184 28.00634 11772 ft 346 kts 121°
2026-04-30 20:13 41.02102 28.03482 11512 ft 345 kts 121°
2026-04-30 20:14 41.01026 28.06315 11273 ft 344 kts 121°
2026-04-30 20:14 40.99953 28.09134 11016 ft 343 kts 121°
2026-04-30 20:14 40.98883 28.11945 10764 ft 341 kts 121°
2026-04-30 20:14 40.97817 28.14741 10514 ft 338 kts 121°
2026-04-30 20:15 40.96770 28.17489 10267 ft 331 kts 121°
2026-04-30 20:15 40.96088 28.19279 10097 ft 327 kts 121°
2026-04-30 20:15 40.95069 28.21949 9840 ft 322 kts 121°
2026-04-30 20:15 40.94086 28.24578 9612 ft 317 kts 115°
2026-04-30 20:16 40.93715 28.27411 9601 ft 311 kts 91°
2026-04-30 20:16 40.93885 28.30214 9532 ft 302 kts 86°
2026-04-30 20:16 40.94132 28.32944 9317 ft 297 kts 85°
2026-04-30 20:16 40.94390 28.35644 9006 ft 296 kts 85°
2026-04-30 20:17 40.94643 28.38345 8730 ft 295 kts 85°
2026-04-30 20:17 40.94886 28.41027 8448 ft 293 kts 85°
2026-04-30 20:17 40.95122 28.43695 8196 ft 291 kts 85°
2026-04-30 20:17 40.95352 28.46341 7927 ft 289 kts 85°
2026-04-30 20:18 40.95577 28.48973 7644 ft 288 kts 85°
2026-04-30 20:18 40.95800 28.51600 7371 ft 287 kts 85°
2026-04-30 20:18 40.96020 28.54203 7144 ft 283 kts 85°
2026-04-30 20:18 40.96237 28.56794 6836 ft 284 kts 85°
2026-04-30 20:19 40.96450 28.59347 6608 ft 281 kts 84°
2026-04-30 20:19 40.96664 28.61915 6309 ft 281 kts 84°
2026-04-30 20:19 40.96878 28.64479 6029 ft 279 kts 84°
2026-04-30 20:19 40.97086 28.66989 5965 ft 270 kts 84°
2026-04-30 20:20 40.97286 28.69415 5871 ft 261 kts 84°
2026-04-30 20:20 40.97691 28.71701 5777 ft 251 kts 58°
2026-04-30 20:20 40.98915 28.73259 5688 ft 248 kts 22°
2026-04-30 20:20 41.00596 28.73593 5435 ft 247 kts 352°
2026-04-30 20:21 41.02303 28.73299 5099 ft 249 kts 355°
2026-04-30 20:21 41.04037 28.73192 4764 ft 250 kts
2026-04-30 20:21 41.05785 28.73162 4421 ft 252 kts
2026-04-30 20:21 41.07542 28.73138 4075 ft 253 kts
2026-04-30 20:22 41.09307 28.73106 3707 ft 254 kts
2026-04-30 20:22 41.11071 28.73071 3373 ft 253 kts
2026-04-30 20:22 41.12794 28.73036 3061 ft 240 kts
2026-04-30 20:22 41.14402 28.73003 2736 ft 222 kts
2026-04-30 20:23 41.15886 28.72974 2453 ft 205 kts
2026-04-30 20:23 41.17258 28.72948 2176 ft 186 kts
2026-04-30 20:23 41.18478 28.72922 1958 ft 162 kts
2026-04-30 20:23 41.19540 28.72902 1708 ft 143 kts
2026-04-30 20:24 41.20463 28.72885 1529 ft 125 kts
2026-04-30 20:24 41.21323 28.72868 1354 ft 124 kts
2026-04-30 20:24 41.22188 28.72845 1191 ft 124 kts
2026-04-30 20:24 41.23058 28.72882 1023 ft 125 kts
2026-04-30 20:25 41.24831 28.72756 675 ft 129 kts
2026-04-30 20:25 41.25719 28.72752 465 ft 125 kts
2026-04-30 20:26 41.27378 28.72756 330 ft 91 kts 359°
2026-04-30 20:26 41.28049 28.72821 332 ft 23 kts 26°
2026-04-30 20:26 41.28126 28.72892 329 ft 12 kts 64°
2026-04-30 20:27 41.28007 28.72962 329 ft 11 kts 178°
2026-04-30 20:27 41.27850 28.72966 333 ft 14 kts 179°
2026-04-30 20:28 41.27582 28.72972 331 ft 24 kts 179°
2026-04-30 20:28 41.27238 28.72981 332 ft 23 kts 179°
2026-04-30 20:29 41.26926 28.72987 329 ft 20 kts 179°
2026-04-30 20:30 41.26870 28.73367 331 ft 7 kts 88°
2026-04-30 20:30 41.26783 28.73442 329 ft 0 kts 179°